Disclaimer

Please do not use the information listed here in-flight or in-navigation, as they are not provided to us by the airports but are provided by volunteers, so they might be outdated.

Search


Regions


Airport information page

Radio informations:
DESIDERIO TWR - 34.95 MHz
PMSV METRO - 37.3 MHz
DESIDERIO OPS - 37.95 MHz
DESIDERIO GND - 119.5 MHz
Automatic Terminal Information Service (ATIS) - 108.2 MHz
BRICKWALL - 120.0 MHz
OSAN APP/DEP - 127.9 MHz

Airport informations:
Latitude: 36° 57' 43.97" N
Longitude: 127° 01' 51.86" E
Elevation: 51 feet - 16 meters
Operating hours: From sunrise to sunset (SR-SS)
Operating agency: U.S.ARMY
Timezone: UTC+9
Fuel: JP-8, SemiKeroscene MIL Spec T-83133, without icing inhibitor

Runway information:
14/32 - 8217 x 150 feet< - >2505 x 46 meters

Recent METARs:
RKSG 170856Z 29006KT 7SM CLR 01/M09 A3025 RMK AO2A SLP248 T00131088 $
RKSG 170856Z 29006KT 7SM CLR 01/M09 A3025 RMK AO2A SLP248 T00131088 $
RKSG 170956Z 28005KT 7SM CLR 00/M07 A3026 RMK AO2A SLP251 T10011072 $

Airport on the map: